GFSCGP_con_3kmhel_105.txt.gz
Helicity
82 79 69 47 77 16 4 16 65 70 174 274 136 129 76 96 197 110 -71 -10 45 75 157 155 138 140 101 35 19 32 64 2 -15 -16 -44 -12 16 4 20 21 22 3 11 -5
85 76 33 79 98 87 55 39 -5 224 281 236 173 122 70 81 101 31 95 64 122 160 165 141 172 163 118 51 56 80 80 26 -27 -27 -22 14 7 22 21 17 23 9 28 14
56 99 -1 90 102 146 99 71 83 41 152 31 157 160 84 140 133 53 129 138 147 153 178 152 177 226 155 79 47 75 39 4 -27 -1 -8 -3 4 -7 1 8 14 24 23 21
66 44 10 47 91 135 130 10 374 245 168 103 -13 16 -32 17 121 59 86 201 193 227 181 147 152 280 216 129 77 80 23 -15 -19 -8 -35 -14 -28 -25 6 2 6 6 17 26
55 99 74 28 109 60 64 99 86 61 102 181 -21 17 -26 70 77 74 31 127 165 235 190 74 165 283 211 201 118 121 28 -22 -23 10 -22 -4 -18 -12 6 29 11 21 8 22
67 16 59 19 34 51 51 36 25 119 125 118 -19 30 32 100 15 171 -3 2 -25 69 49 11 83 256 247 222 158 121 72 -5 -13 2 39 13 -14 -16 0 -4 -4 5 17 20
66 84 38 18 46 51 67 63 60 80 82 56 91 12 36 170 149 44 23 -30 -12 36 63 -9 58 151 264 215 176 125 105 30 -8 -6 29 18 13 17 -11 -7 -13 -14 -2 20
72 106 53 34 65 76 89 51 88 96 90 21 122 120 60 171 113 63 237 194 234 92 242 247 108 170 164 232 172 139 93 83 34 -16 15 67 39 9 -19 -41 -46 -17 1 -15
26 47 27 63 34 20 45 92 28 -3 -19 53 155 178 162 128 134 76 17 93 167 267 179 143 73 174 159 160 171 121 78 51 73 28 -22 28 51 15 -20 -32 -26 -11 21 -6
56 51 27 120 105 101 61 113 63 70 138 50 39 119 151 127 81 89 148 202 195 184 207 137 131 105 205 315 422 253 158 75 8 64 39 7 28 0 -13 4 25 45 9 55
143 127 156 179 100 107 107 160 83 25 56 20 41 62 88 162 96 113 181 213 168 231 314 318 157 145 167 289 470 386 250 227 161 83 80 42 19 10 -11 9 45 56 -8 2
67 108 211 113 57 72 86 138 151 41 120 6 9 51 245 93 84 100 124 140 195 139 170 260 164 201 167 373 392 286 237 166 59 124 30 25 48 26 -4 -31 -8 105 42 -20
115 145 128 130 94 97 122 89 120 90 78 30 14 11 219 97 79 85 126 171 184 181 131 148 157 161 206 278 310 288 248 215 91 -21 85 58 36 26 15 -13 -17 47 107 61
18 159 83 213 191 185 123 125 118 72 142 -36 59 54 121 190 184 121 134 119 139 110 74 49 101 107 146 225 233 273 254 197 81 87 115 115 160 102 45 43 41 43 54 46
54 163 129 101 76 131 159 237 149 139 -14 -58 -139 15 111 129 128 111 105 87 117 87 97 103 82 81 135 175 195 185 135 68 72 85 67 84 154 197 221 150 82 56 69 54
47 71 -13 99 131 105 128 215 132 101 -4 -7 -46 22 111 96 114 109 67 57 84 121 130 64 83 75 56 104 154 172 171 149 100 47 33 96 145 55 143 260 264 195 102 62
84 59 101 -2 100 139 177 129 171 177 124 -27 -62 -16 73 94 86 73 123 143 104 69 88 104 49 32 105 136 101 91 108 125 130 100 114 99 140 115 106 97 154 247 256 215
53 40 66 119 128 126 95 27 77 88 68 77 63 34 71 68 61 88 112 140 164 180 184 159 155 146 145 158 225 153 130 109 143 167 175 160 130 125 116 31 69 104 176 189
160 74 70 59 101 67 74 67 90 67 82 65 64 34 24 114 127 127 134 192 174 200 217 189 126 158 193 169 194 186 147 115 132 169 203 216 197 165 151 178 146 91 105 62
69 64 87 142 114 95 165 204 188 169 222 79 34 86 124 196 202 221 223 234 258 231 184 198 159 144 139 152 154 155 109 123 126 99 95 92 100 122 173 145 164 129 95 53
46 85 93 144 171 166 153 188 205 148 234 125 125 128 207 235 167 318 392 330 203 115 127 160 150 120 83 92 99 101 77 76 68 64 69 71 74 83 73 63 65 79 124 147
89 51 65 91 211 159 107 140 165 133 129 328 427 386 433 430 492 565 473 303 179 93 125 132 113 97 79 79 95 106 106 85 85 92 98 97 101 102 92 84 88 93 75 94
162 147 109 107 135 92 139 154 181 153 79 125 191 277 394 406 423 351 319 228 203 207 178 127 87 88 81 81 92 103 105 124 133 131 130 135 144 116 104 94 94 90 80 67
64 153 139 115 163 66 106 167 214 148 140 148 6 13 111 172 174 171 201 240 223 220 193 156 118 82 78 86 93 102 99 99 116 138 137 129 135 161 173 143 118 95 90 88
88 102 127 166 154 212 139 83 96 166 155 151 170 245 304 256 215 201 223 219 180 181 186 149 119 128 109 99 107 87 83 98 98 105 119 140 110 105 103 96 91 100 113 121
131 99 213 133 181 193 224 120 96 116 135 123 128 152 159 253 244 226 194 181 201 221 173 168 152 119 93 77 77 71 61 68 80 72 88 97 76 84 74 67 67 77 87 129

GFSCGP_con_3kmhel_111.txt.gz
Helicity
162 134 81 95 126 144 132 121 98 79 5 120 105 71 108 100 115 5 -34 127 54 82 53 34 14 45 40 -39 -36 -5 -3 3 17 8 -6 -5 6 21 16 7 6 11 -12 -3
194 83 56 63 67 117 109 135 95 70 32 70 77 73 77 102 110 181 -156 128 29 24 79 43 -1 40 39 -13 -43 -6 -12 -2 -11 -6 10 19 7 -3 5 15 7 6 -2 0
99 67 33 74 96 122 116 90 58 37 68 134 81 80 63 97 120 109 -28 44 135 76 132 59 63 50 15 15 -8 24 11 -14 -7 -2 18 30 26 28 5 -12 2 12 11 6
47 32 90 106 130 99 125 92 90 116 137 115 41 4 56 94 130 162 88 39 112 113 116 114 74 56 29 12 -13 22 15 3 1 1 4 -9 -3 7 7 -5 -10 4 9 18
83 113 105 105 160 139 79 50 114 211 177 131 59 40 112 184 99 143 168 -45 86 175 2 135 151 105 40 35 21 2 28 29 13 -7 1 1 6 15 12 3 -8 -4 -4 10
83 101 78 70 155 149 47 134 216 188 156 91 44 20 24 137 183 110 56 -63 88 122 161 42 80 44 94 21 46 10 26 45 38 10 -7 -4 -9 11 14 0 -8 -3 0 1
100 105 74 90 151 84 157 205 221 182 161 84 38 91 73 36 114 68 234 20 32 150 200 163 77 -38 60 94 96 51 25 39 42 25 -17 -12 -4 8 5 13 7 3 -6 3
80 155 90 65 121 98 118 129 163 169 101 84 56 61 92 80 132 140 78 1 114 110 159 208 161 72 77 40 121 113 61 35 31 30 2 -10 2 -3 7 3 12 3 6 14
73 123 131 92 74 74 90 145 43 108 114 97 69 38 16 133 193 218 189 281 138 67 125 182 91 88 41 35 94 127 120 79 86 35 54 10 16 2 11 -1 3 -1 -4 8
74 85 109 127 71 63 77 74 134 191 132 139 110 49 49 102 175 184 181 195 186 104 93 111 67 121 53 57 140 134 134 137 135 111 77 53 19 16 23 13 12 4 -7 10
68 60 140 101 139 165 155 155 170 114 125 120 91 85 110 121 189 204 154 83 62 100 80 65 184 131 64 117 219 203 201 188 156 122 87 45 30 21 26 29 16 10 13 7
77 50 102 146 192 190 184 140 137 161 148 170 113 93 109 122 143 158 169 171 71 55 50 6 128 313 155 155 235 244 264 246 184 160 108 77 53 32 17 27 31 20 23 14
80 92 58 176 155 206 230 287 182 140 178 136 123 107 116 141 111 87 112 132 164 142 105 21 74 123 64 96 127 174 201 251 213 148 86 55 58 62 28 30 37 35 31 30
119 74 53 81 171 196 241 252 273 127 178 104 120 126 73 53 64 64 88 104 132 125 91 55 52 114 62 99 124 220 154 242 311 196 14 7 6 33 89 81 69 56 49 50
159 108 42 125 209 303 226 208 235 155 107 125 47 58 -21 46 59 64 102 101 84 117 98 91 94 121 101 152 223 176 217 325 90 -64 7 17 32 70 115 134 109 98 99 64
64 101 71 81 206 294 403 341 282 165 218 218 108 114 107 99 127 68 67 89 107 97 100 126 138 129 153 183 200 213 243 268 225 153 130 133 105 130 162 175 150 97 83 85
57 50 97 105 141 213 326 443 283 133 183 187 154 66 78 103 74 75 130 140 118 111 109 124 157 190 217 250 255 237 226 232 209 153 162 142 124 92 173 153 100 76 73 60
52 53 86 90 136 161 177 185 113 62 166 128 108 138 119 86 65 86 97 210 175 131 101 117 121 140 167 176 204 190 221 241 218 190 167 157 145 111 173 125 109 60 72 100
91 52 66 69 85 105 92 190 76 102 116 78 141 134 132 131 148 124 87 109 140 115 105 114 126 122 124 139 135 153 191 193 206 205 174 156 111 120 162 164 155 110 70 77
134 108 67 70 62 36 68 127 -8 11 284 55 129 107 140 154 184 126 135 146 117 115 93 99 116 118 118 107 106 126 139 157 180 152 150 170 180 164 163 144 104 75 107 70
118 118 66 86 100 112 107 129 136 101 67 113 76 133 192 159 117 164 159 118 114 95 95 109 121 106 82 80 97 119 125 147 107 81 78 103 117 121 138 137 106 111 136 159
83 77 58 50 98 112 107 91 94 72 107 150 116 173 314 211 179 270 209 150 105 117 124 132 150 117 79 62 66 85 103 82 71 63 63 81 96 85 94 105 122 116 118 120
111 66 53 38 21 72 106 56 24 22 38 99 191 214 296 243 243 243 222 203 197 162 157 136 130 116 101 74 43 58 56 62 63 73 89 103 109 119 132 137 167 164 179 175
113 120 104 110 121 137 123 93 35 31 39 80 191 210 226 222 312 295 211 211 195 141 179 129 115 94 77 56 44 13 45 74 92 102 109 116 132 152 162 150 159 166 163 186
87 120 112 133 170 135 147 100 9 6 31 77 100 143 168 227 186 170 210 282 267 233 166 128 106 63 33 42 47 49 64 77 85 97 126 159 153 154 166 165 154 168 151 151
95 106 98 69 107 147 158 117 72 41 -11 -33 -11 21 56 121 190 215 209 191 205 183 152 128 92 44 11 49 62 68 65 75 83 101 105 101 102 123 139 148 163 111 140 180

GFSCGP_con_3kmhel_114.txt.gz
Helicity
150 176 127 140 132 120 112 104 80 76 37 73 60 73 105 133 151 114 12 -48 -88 51 41 53 66 54 40 16 3 -19 4 7 17 5 4 17 16 13 8 1 -1 2 8 12
168 99 100 122 128 123 116 101 90 68 58 65 55 89 95 115 158 210 113 30 -86 -16 57 53 61 64 40 33 -1 -30 11 31 13 27 10 12 10 9 17 18 -1 -1 -9 8
100 88 76 133 136 130 84 74 59 63 54 85 60 68 56 102 76 111 195 -32 77 -54 37 48 53 99 29 14 10 -40 6 23 -1 1 25 41 43 35 31 23 15 -3 -11 1
69 70 101 107 115 110 85 62 84 71 59 41 50 -17 -17 118 104 133 180 -17 13 98 28 67 60 69 84 -7 -26 -46 -26 9 -4 4 4 13 28 22 10 3 13 8 -0 -1
87 85 93 117 96 85 105 93 82 101 124 69 55 12 9 83 104 139 115 130 108 4 47 -25 30 114 78 12 -22 -30 -32 -13 11 -5 -8 -1 -4 2 20 13 -0 5 17 14
73 125 82 58 91 117 79 146 204 180 122 89 44 29 36 44 51 153 151 185 102 36 59 28 34 49 49 -16 -39 -31 -9 -5 -1 -5 -8 4 4 3 13 21 18 11 16 34
69 74 77 103 144 188 187 215 230 172 171 99 88 58 28 76 56 116 176 129 64 43 57 56 9 29 29 3 -37 -6 6 22 14 38 17 9 1 4 8 21 23 14 22 21
86 122 50 60 102 131 149 174 227 205 153 113 120 52 63 39 43 2 149 166 83 116 69 38 38 24 30 24 12 33 37 33 69 47 24 23 13 20 19 19 22 20 18 12
97 138 152 100 62 89 139 195 132 185 161 125 95 89 29 64 78 90 53 152 157 44 -11 15 47 90 30 29 34 77 81 96 77 65 49 35 38 23 10 16 19 20 17 21
56 122 109 133 86 83 111 119 236 252 198 147 114 77 49 35 92 112 115 108 130 62 88 92 67 56 110 54 29 24 51 68 107 74 57 45 39 30 36 16 10 14 22 26
41 61 142 142 114 146 153 165 167 133 186 157 119 114 73 69 81 103 85 103 204 173 67 44 67 68 113 85 25 1 62 112 130 100 80 54 41 44 35 23 23 17 19 28
86 24 95 148 115 101 146 134 118 191 179 179 142 101 76 64 80 68 88 97 90 130 117 146 121 72 76 127 48 62 148 179 185 150 132 101 77 54 36 29 27 32 22 25
31 63 56 159 170 160 194 252 158 121 199 167 147 117 64 98 90 63 73 97 111 80 65 71 95 87 123 158 165 54 186 274 243 221 160 114 97 76 54 40 28 35 28 28
114 89 45 50 119 157 233 276 231 174 209 195 176 89 23 65 109 101 95 132 155 145 123 102 77 89 146 140 86 85 198 291 275 277 209 122 86 82 69 61 51 50 48 46
155 127 80 99 119 170 130 277 262 140 152 162 122 82 27 34 87 91 108 96 82 98 81 70 77 95 158 139 114 149 173 155 150 198 157 100 54 63 76 86 91 100 98 80
73 106 162 117 143 183 148 251 266 193 172 175 162 176 158 141 143 129 125 194 153 101 69 47 53 112 106 115 184 156 131 139 47 161 209 125 62 90 113 138 144 146 146 139
55 79 125 122 158 157 189 208 346 238 156 151 153 98 173 199 146 184 163 133 115 124 114 112 122 163 259 322 284 325 326 168 123 51 25 33 75 101 129 213 187 162 113 100
72 70 72 65 144 159 119 61 167 227 208 194 118 100 157 272 219 194 130 131 120 106 103 119 131 192 288 349 367 361 361 343 320 273 213 173 141 121 157 155 191 190 110 77
101 72 58 32 82 90 89 111 133 203 280 125 87 127 187 209 225 207 142 138 121 101 99 102 103 123 170 179 183 241 277 259 281 260 215 168 143 135 102 118 158 179 148 134
114 120 60 57 63 42 84 93 34 75 318 172 127 150 160 169 217 185 175 154 104 91 96 94 115 115 126 128 129 140 138 150 154 136 144 145 133 147 135 120 105 93 74 134
128 94 51 52 42 53 68 109 86 117 138 72 53 89 107 143 129 132 155 159 117 101 96 87 96 106 90 71 99 123 118 133 109 109 112 144 156 147 143 143 156 171 161 152
77 76 71 84 93 90 60 87 81 97 72 41 93 115 189 216 136 183 118 120 106 98 99 102 118 101 82 73 87 101 108 81 76 77 95 106 108 107 121 130 139 159 139 132
82 58 44 41 30 43 75 60 76 68 31 99 146 161 229 232 201 206 174 137 102 89 89 88 111 112 111 85 56 73 63 64 83 105 118 109 99 99 97 108 116 114 132 136
65 84 79 81 61 71 76 65 79 74 45 62 127 193 213 199 190 210 184 133 106 83 101 79 85 78 74 67 58 34 36 56 86 113 137 140 144 145 150 133 129 123 146 148
57 83 88 100 101 101 69 46 28 34 32 76 99 130 146 162 157 208 194 107 105 142 112 68 62 39 6 -4 4 3 18 40 67 85 111 138 153 167 167 166 158 145 132 130
70 66 73 36 68 83 73 82 39 13 2 14 60 77 84 107 146 118 25 -12 95 121 115 100 73 50 7 11 8 12 26 41 51 75 89 102 110 124 136 147 166 175 176 172

GFSCGP_con_3kmhel_117.txt.gz
Helicity
147 138 67 89 113 99 97 65 45 61 41 46 38 40 57 106 53 -12 -41 -70 -74 -36 21 36 35 51 46 28 12 9 6 13 15 8 -0 2 2 1 1 -1 -3 -4 9 19
140 62 97 127 119 114 99 72 72 66 60 58 38 32 51 45 84 93 -24 -73 -72 -64 -17 20 32 47 56 44 26 7 8 2 24 -0 4 19 17 9 -0 -6 3 -2 9 15
77 84 98 79 108 98 93 70 47 69 30 38 29 44 51 18 36 90 150 23 -38 -87 -11 8 29 59 40 44 32 12 4 3 11 7 3 -0 2 6 4 1 -3 -4 -7 -4
65 75 76 97 87 95 70 70 67 50 30 52 29 33 -34 31 82 161 147 80 -78 -7 -55 -49 14 48 38 23 1 -5 -7 8 9 -2 9 25 37 22 20 11 6 -4 -8 -12
101 72 75 82 60 70 97 76 57 63 71 43 27 24 -2 -0 -6 59 171 43 -63 -64 -43 -15 25 24 21 -9 -10 -9 -20 11 6 9 8 13 21 11 9 10 7 1 4 4
101 106 93 80 67 37 44 111 134 117 89 63 41 20 -8 38 85 25 61 48 17 1 -46 3 -4 -13 6 12 -6 -10 -21 -3 7 10 1 5 -5 2 8 8 11 12 18 13
79 91 107 78 106 86 140 94 156 113 94 88 73 40 46 -2 3 56 108 85 -1 85 28 30 -3 -28 10 14 -7 -10 -5 -12 -3 8 8 2 1 9 8 2 15 16 15 25
93 86 48 58 79 85 56 117 148 108 99 72 104 59 54 42 39 8 51 62 113 99 10 17 11 16 2 5 7 1 3 5 1 6 10 18 15 19 13 7 17 22 18 23
121 137 82 67 71 66 80 108 151 172 173 68 112 84 27 33 61 33 13 64 35 55 90 53 56 74 14 7 4 10 19 26 21 14 18 19 28 29 27 23 19 15 14 22
69 154 109 95 66 79 60 61 113 210 138 86 83 107 59 51 63 42 27 30 -21 72 140 29 64 81 59 60 8 20 21 37 49 31 31 34 30 36 29 26 16 14 10 13
71 111 116 116 130 104 87 82 113 151 204 88 71 79 77 49 28 63 30 -2 6 78 72 60 42 36 56 66 53 25 37 51 35 43 44 36 23 34 36 33 20 24 25 17
37 81 146 134 108 107 94 104 107 132 132 170 135 64 58 44 29 64 67 23 -41 -61 -11 14 95 66 96 85 77 73 54 48 43 52 66 65 65 48 42 34 31 36 30 32
22 70 102 112 97 122 165 148 133 111 114 118 86 85 83 35 64 75 79 34 -3 -15 21 67 48 88 65 84 153 173 101 76 91 139 112 101 86 66 57 48 36 45 41 34
60 55 77 142 113 113 171 191 158 138 123 95 100 89 46 13 34 60 81 94 68 75 27 46 9 6 57 104 153 171 134 86 121 219 214 173 143 116 91 87 60 42 41 42
107 69 71 79 90 95 99 168 181 138 147 113 72 63 43 12 29 64 90 95 82 89 143 122 115 98 95 128 130 145 150 116 194 289 266 230 172 138 117 114 102 75 59 63
69 85 109 90 124 124 135 117 101 149 180 147 138 90 110 84 120 143 140 135 120 127 127 158 168 117 95 116 141 296 270 203 182 216 221 192 161 123 119 139 153 132 108 105
34 52 95 109 126 119 98 145 151 89 118 171 142 144 62 96 140 179 160 114 127 152 117 124 155 133 129 131 184 203 134 77 90 204 212 211 247 27 61 111 183 196 157 122
60 67 70 101 121 132 119 94 118 156 131 127 144 107 19 125 141 142 119 119 118 124 119 176 207 218 267 273 216 248 284 174 186 194 141 128 191 98 85 89 131 168 169 152
71 78 82 62 79 138 80 79 106 122 164 216 212 88 41 145 208 175 166 171 146 123 127 131 167 214 268 303 344 398 316 146 49 100 123 118 69 83 77 110 112 133 176 135
103 122 54 88 67 68 83 103 139 71 104 42 102 82 29 152 232 235 213 196 157 150 113 107 99 143 190 220 217 254 245 194 176 208 194 143 122 103 99 96 87 91 87 113
99 119 84 77 56 50 56 77 69 75 113 92 62 55 24 50 111 122 204 228 188 135 108 94 113 121 128 120 100 129 143 148 142 123 133 133 135 123 128 118 118 97 96 103
81 72 69 79 58 18 90 62 69 96 74 51 -10 22 68 89 92 133 134 161 182 148 111 79 96 98 97 105 138 109 131 108 134 140 140 131 132 155 144 128 145 153 149 165
90 83 77 53 57 32 46 56 50 48 61 45 43 57 88 82 89 101 107 104 131 123 109 87 116 119 80 89 68 87 66 71 75 88 95 110 118 134 131 140 137 137 142 127
67 68 68 53 44 47 32 32 35 21 16 30 49 86 118 81 64 100 116 92 82 60 49 51 55 60 60 49 51 48 28 37 51 71 75 76 87 100 112 118 131 137 135 130
72 57 55 59 49 55 50 60 72 61 38 23 36 54 72 91 93 186 242 126 79 59 42 26 34 40 38 30 36 34 42 50 73 84 91 99 104 109 114 138 141 125 167 167
68 73 58 58 73 81 76 78 78 72 63 27 50 34 36 31 50 153 256 240 205 136 55 41 33 31 11 -7 -3 5 17 29 45 60 72 86 98 113 118 110 125 184 176 191

GFSCGP_con_3kmhel_123.txt.gz
Helicity
39 78 45 11 6 48 67 95 68 184 32 20 -15 24 42 53 -51 79 62 -42 -17 25 6 10 18 18 14 12 16 7 51 27 -3 -7 12 3 15 11 25 18 25 20 7 10
47 53 21 32 20 22 69 117 23 23 17 44 17 32 62 106 -20 -36 93 18 -1 114 14 8 34 11 21 28 11 4 8 1 25 25 36 45 21 19 27 22 -15 11 -2 14
39 16 22 32 49 70 4 5 55 62 18 8 86 26 39 21 25 37 23 -18 -12 51 115 36 8 9 22 15 7 25 10 3 22 29 30 31 60 12 1 15 -6 -4 3 6
33 26 37 56 67 48 19 38 -8 75 -13 18 0 19 6 56 71 96 82 -63 31 92 69 -20 40 -15 -6 43 9 1 8 0 7 6 19 0 28 13 9 2 -2 2 3 11
30 47 53 49 44 16 55 68 34 8 22 0 37 58 44 71 55 132 102 58 22 110 40 56 31 27 28 25 31 10 -2 -1 6 12 51 17 40 8 -3 13 1 27 -16 10
52 48 19 5 13 43 39 26 22 11 30 25 -44 -2 -51 93 89 104 88 72 94 1 -30 48 32 60 151 -1 36 38 6 5 10 6 14 21 32 56 28 0 -7 -1 1 4
46 35 20 63 36 31 47 21 33 61 55 53 48 25 77 31 37 83 128 39 114 22 -25 40 -2 73 45 -1 29 55 26 0 3 2 10 13 20 20 23 17 0 7 5 1
25 28 14 16 26 14 36 33 42 5 0 -4 105 45 17 -21 75 60 130 42 93 86 25 -39 -41 132 -57 49 44 41 36 11 2 7 18 23 13 5 8 8 51 0 9 36
18 19 26 13 7 54 2 55 53 40 105 29 74 75 103 120 85 33 35 93 110 122 74 -3 102 82 32 59 64 67 38 18 13 13 20 21 18 21 22 31 27 23 23 43
59 50 42 20 18 10 56 9 50 37 29 61 86 0 48 53 37 29 5 98 137 159 123 59 19 10 42 58 53 26 56 26 23 25 21 20 19 24 20 21 16 23 32 25
50 25 50 22 34 23 44 50 44 56 32 42 70 96 183 79 62 21 3 24 179 216 136 95 9 -16 49 39 82 64 55 34 28 32 38 33 26 27 30 19 11 14 13 12
30 52 3 -15 -19 0 58 10 30 49 42 38 16 14 43 17 34 42 25 46 180 231 123 81 143 55 131 53 206 77 60 49 31 50 46 38 39 42 33 28 37 19 22 11
55 51 52 72 26 28 39 38 8 8 8 25 31 96 91 61 74 21 7 48 145 146 77 69 203 159 142 151 100 81 96 61 60 57 53 52 42 38 40 35 35 37 28 29
65 54 86 90 113 113 -2 6 45 66 46 31 23 81 31 14 55 43 48 143 167 192 214 197 203 178 132 122 139 128 155 157 142 92 93 88 60 50 42 53 53 44 38 39
49 75 46 10 13 46 87 50 10 36 54 60 37 120 49 70 130 65 88 169 159 166 153 119 96 113 102 77 102 95 94 98 104 148 155 165 125 77 62 82 60 59 45 46
26 50 46 102 24 18 37 21 44 46 25 34 40 39 39 170 103 83 56 68 136 122 147 131 84 65 64 75 81 57 79 102 148 176 232 210 197 157 111 85 100 83 60 48
34 22 29 61 24 32 37 26 26 26 46 64 66 102 2 33 66 51 34 25 70 88 122 100 89 151 131 172 199 202 196 222 237 212 249 221 187 198 156 120 115 131 107 91
18 27 35 40 113 38 55 111 103 101 67 180 94 42 90 59 89 78 53 55 121 145 185 156 219 222 148 155 182 192 193 176 211 308 355 341 312 308 271 142 127 131 169 182
36 32 16 23 19 8 18 79 74 47 65 132 95 83 108 121 55 71 96 74 62 200 244 188 189 207 244 169 171 157 149 136 140 192 206 226 390 382 386 371 312 224 128 180
7 28 47 26 62 55 194 99 62 92 97 106 59 69 88 52 54 47 108 214 240 198 147 149 180 242 340 375 212 251 202 123 117 169 188 186 153 208 246 276 312 250 205 166
27 35 20 14 31 61 58 38 41 46 126 137 150 106 58 27 159 76 181 168 160 165 151 147 183 240 298 337 388 301 186 164 141 107 68 86 84 133 173 166 246 463 166 176
53 40 40 42 71 49 78 5 91 109 82 82 87 67 90 99 44 81 235 208 156 162 166 159 166 203 233 222 233 282 298 219 188 160 141 108 87 119 41 76 54 137 149 76
55 80 60 144 150 8 26 102 76 97 98 85 57 73 42 29 102 103 189 196 191 171 163 197 173 157 206 227 190 198 198 203 161 117 141 103 92 87 150 131 143 107 78 37
46 51 82 42 41 41 61 53 100 85 80 76 61 99 90 177 115 37 81 173 263 233 187 132 132 112 127 129 149 219 189 163 161 135 120 129 96 114 124 116 131 119 123 132
-20 150 45 52 70 226 40 108 71 48 43 46 36 20 83 125 83 65 139 154 180 161 190 217 182 172 178 204 147 150 148 118 154 140 96 68 68 80 108 132 123 81 142 153
-6 -10 0 39 172 57 146 89 64 49 52 48 35 47 43 135 65 95 114 141 170 201 254 283 212 154 143 113 128 52 45 108 115 157 56 63 64 54 51 57 102 178 157 155